| time (UTC) | temp C | wind direction | speed KPH | gust KPH | rain 1hr cm | rain 24hr cm | rain mn cm | humidity % | barometer mb |
| 20260504080134 | 7 | 248 | 4.8 | 6.4 | 0.00 | 0.00 | 0.00 | 54 | 1017.4 |
| 20260504050451 | 4 | 243 | 1.6 | 3.2 | 0.00 | 0.00 | 0.00 | 61 | 1018.3 |
| 20260504045948 | 3 | 243 | 1.6 | 1.6 | 0.00 | 0.00 | 0.00 | 62 | 1018.0 |
| 20260504045443 | 4 | 242 | 1.6 | 1.6 | 0.00 | 0.00 | 0.00 | 63 | 1018.1 |
| 20260504044940 | 3 | 242 | 0.0 | 0.0 | 0.00 | 0.00 | 0.00 | 63 | 1018.1 |
| 20260504044438 | 4 | 242 | 0.0 | 1.6 | 0.00 | 0.00 | 0.00 | 63 | 1018.3 |
| 20260504043935 | 3 | 242 | 1.6 | 1.6 | 0.00 | 0.00 | 0.00 | 63 | 1018.1 |
| 20260504043431 | 3 | 242 | 0.0 | 0.0 | 0.00 | 0.00 | 0.00 | 66 | 1018.3 |
| 20260504042929 | 3 | 242 | 0.0 | 0.0 | 0.00 | 0.00 | 0.00 | 65 | 1018.0 |
| 20260504042426 | 4 | 242 | 0.0 | 0.0 | 0.00 | 0.00 | 0.00 | 63 | 1018.1 |
| 20260504041922 | 3 | 242 | 1.6 | 3.2 | 0.00 | 0.00 | 0.00 | 62 | 1018.1 |
| 20260504041418 | 3 | 242 | 1.6 | 3.2 | 0.00 | 0.00 | 0.00 | 63 | 1018.2 |
| 20260504040914 | 3 | 242 | 0.0 | 1.6 | 0.00 | 0.00 | 0.00 | 67 | 1017.9 |
| 20260504040413 | 3 | 242 | 0.0 | 0.0 | 0.00 | 0.00 | 0.00 | 69 | 1018.2 |
| 20260504035908 | 3 | 242 | 0.0 | 0.0 | 0.00 | 0.00 | 0.00 | 69 | 1018.3 |
| 20260504035406 | 5 | 242 | 0.0 | 0.0 | 0.00 | 0.00 | 0.00 | 63 | 1018.1 |
| 20260504034902 | 5 | 242 | 0.0 | 3.2 | 0.00 | 0.00 | 0.00 | 59 | 1018.3 |
| 20260504034359 | 5 | 246 | 1.6 | 3.2 | 0.00 | 0.00 | 0.00 | 57 | 1018.1 |
| 20260504033856 | 5 | 260 | 3.2 | 3.2 | 0.00 | 0.00 | 0.00 | 58 | 1018.2 |
| 20260504033354 | 5 | 267 | 4.8 | 6.4 | 0.00 | 0.00 | 0.00 | 56 | 1018.1 |
| 20260504032850 | 5 | 273 | 4.8 | 4.8 | 0.00 | 0.00 | 0.00 | 58 | 1018.2 |
| 20260504032347 | 5 | 275 | 3.2 | 4.8 | 0.00 | 0.00 | 0.00 | 59 | 1018.1 |
| 20260504031844 | 5 | 276 | 4.8 | 4.8 | 0.00 | 0.00 | 0.00 | 57 | 1018.1 |
| 20260504031341 | 5 | 270 | 3.2 | 4.8 | 0.00 | 0.00 | 0.00 | 58 | 1018.2 |
| 20260504030837 | 5 | 261 | 3.2 | 3.2 | 0.00 | 0.00 | 0.00 | 58 | 1018.4 |
| 20260504030335 | 5 | 263 | 3.2 | 3.2 | 0.00 | 0.00 | 0.00 | 57 | 1018.3 |
| 20260504025831 | 5 | 263 | 3.2 | 4.8 | 0.00 | 0.00 | 0.00 | 58 | 1018.3 |
| 20260504025328 | 5 | 269 | 3.2 | 3.2 | 0.00 | 0.00 | 0.00 | 58 | 1018.3 |
| 20260504024825 | 5 | 270 | 3.2 | 3.2 | 0.00 | 0.00 | 0.00 | 57 | 1018.4 |
| 20260504024321 | 5 | 273 | 3.2 | 4.8 | 0.00 | 0.00 | 0.00 | 57 | 1018.3 |
| 20260504023818 | 5 | 271 | 3.2 | 4.8 | 0.00 | 0.00 | 0.00 | 56 | 1018.3 |
| 20260504023315 | 5 | 273 | 3.2 | 3.2 | 0.00 | 0.00 | 0.00 | 56 | 1018.5 |
| 20260504022810 | 5 | 278 | 3.2 | 3.2 | 0.00 | 0.00 | 0.00 | 56 | 1018.3 |
| 20260504022307 | 5 | 278 | 3.2 | 3.2 | 0.00 | 0.00 | 0.00 | 56 | 1018.3 |
| 20260504021804 | 5 | 278 | 1.6 | 3.2 | 0.00 | 0.00 | 0.00 | 55 | 1018.2 |
| 20260504021302 | 5 | 279 | 3.2 | 3.2 | 0.00 | 0.00 | 0.00 | 55 | 1018.3 |
| 20260504020758 | 5 | 279 | 1.6 | 3.2 | 0.00 | 0.00 | 0.00 | 54 | 1018.5 |
| 20260504020254 | 5 | 279 | 1.6 | 3.2 | 0.00 | 0.00 | 0.00 | 55 | 1018.5 |
| 20260504015750 | 6 | 279 | 3.2 | 3.2 | 0.00 | 0.00 | 0.00 | 54 | 1018.3 |
| 20260504015247 | 5 | 279 | 1.6 | 3.2 | 0.00 | 0.00 | 0.00 | 54 | 1018.4 |
| 20260504014743 | 5 | 279 | 1.6 | 3.2 | 0.00 | 0.00 | 0.00 | 56 | 1018.4 |
| 20260504014240 | 5 | 279 | 1.6 | 1.6 | 0.00 | 0.00 | 0.00 | 58 | 1018.3 |
| 20260504013737 | 5 | 279 | 0.0 | 0.0 | 0.00 | 0.00 | 0.00 | 62 | 1018.2 |
| 20260504013235 | 5 | 279 | 0.0 | 0.0 | 0.00 | 0.00 | 0.00 | 63 | 1018.1 |
| 20260504012731 | 5 | 279 | 1.6 | 1.6 | 0.00 | 0.00 | 0.00 | 55 | 1018.1 |
| 20260504012229 | 5 | 279 | 1.6 | 1.6 | 0.00 | 0.00 | 0.00 | 56 | 1018.0 |
| 20260504011726 | 5 | 279 | 0.0 | 0.0 | 0.00 | 0.00 | 0.00 | 56 | 1018.0 |
| 20260504011223 | 5 | 279 | 0.0 | 0.0 | 0.00 | 0.00 | 0.00 | 56 | 1018.0 |
| 20260504010719 | 5 | 279 | 0.0 | 0.0 | 0.00 | 0.00 | 0.00 | 56 | 1017.9 |
| 20260504010214 | 6 | 279 | 0.0 | 0.0 | 0.00 | 0.00 | 0.00 | 54 | 1017.9 |
| 20260504005711 | 6 | 279 | 0.0 | 0.0 | 0.00 | 0.00 | 0.00 | 52 | 1017.7 |
| 20260504005208 | 6 | 279 | 1.6 | 1.6 | 0.00 | 0.00 | 0.00 | 51 | 1018.0 |
| 20260504004706 | 6 | 279 | 1.6 | 1.6 | 0.00 | 0.00 | 0.00 | 51 | 1018.0 |
| 20260504004203 | 6 | 279 | 0.0 | 0.0 | 0.00 | 0.00 | 0.00 | 51 | 1017.9 |
| 20260504003659 | 6 | 279 | 0.0 | 0.0 | 0.00 | 0.00 | 0.00 | 51 | 1017.8 |
| 20260504003156 | 6 | 279 | 0.0 | 0.0 | 0.00 | 0.00 | 0.00 | 50 | 1017.9 |
| 20260504002653 | 6 | 279 | 0.0 | 1.6 | 0.00 | 0.00 | 0.00 | 51 | 1017.9 |
| 20260504002150 | 7 | 279 | 0.0 | 3.2 | 0.00 | 0.00 | 0.00 | 50 | 1017.9 |
| 20260504001648 | 7 | 279 | 1.6 | 3.2 | 0.00 | 0.00 | 0.00 | 48 | 1017.9 |
| 20260504001144 | 7 | 285 | 1.6 | 3.2 | 0.00 | 0.00 | 0.00 | 48 | 1018.0 |
| 20260504000641 | 7 | 265 | 1.6 | 6.4 | 0.00 | 0.00 | 0.00 | 47 | 1017.9 |
| 20260504000139 | 7 | 264 | 3.2 | 4.8 | 0.00 | 0.00 | 0.00 | 46 | 1017.9 |
| 20260503235637 | 8 | 257 | 4.8 | 6.4 | 0.00 | 0.00 | 0.00 | 45 | 1018.0 |
| 20260503235133 | 8 | 271 | 3.2 | 4.8 | 0.00 | 0.00 | 0.00 | 47 | 1018.0 |
| 20260503234631 | 7 | 277 | 4.8 | 6.4 | 0.00 | 0.00 | 0.00 | 45 | 1018.1 |
| 20260503234129 | 8 | 264 | 3.2 | 3.2 | 0.00 | 0.00 | 0.00 | 46 | 1018.1 |
| 20260503233626 | 8 | 309 | 1.6 | 6.4 | 0.00 | 0.00 | 0.00 | 44 | 1018.0 |
| 20260503233121 | 8 | 295 | 4.8 | 6.4 | 0.00 | 0.00 | 0.00 | 44 | 1018.1 |
| 20260503232619 | 8 | 312 | 1.6 | 4.8 | 0.00 | 0.00 | 0.00 | 43 | 1017.9 |
| 20260503232116 | 9 | 277 | 4.8 | 6.4 | 0.00 | 0.00 | 0.00 | 42 | 1018.1 |
| 20260503231614 | 9 | 244 | 6.4 | 11.3 | 0.00 | 0.00 | 0.00 | 42 | 1018.1 |
| 20260503231110 | 9 | 278 | 3.2 | 6.4 | 0.00 | 0.00 | 0.00 | 42 | 1018.1 |
| 20260503230607 | 9 | 269 | 4.8 | 12.9 | 0.00 | 0.00 | 0.00 | 41 | 1018.1 |
| 20260503230104 | 10 | 291 | 8.0 | 9.7 | 0.00 | 0.00 | 0.00 | 41 | 1018.1 |
| 20260503225602 | 10 | 310 | 4.8 | 6.4 | 0.00 | 0.00 | 0.00 | 43 | 1017.8 |
| 20260503225057 | 10 | 261 | 1.6 | 6.4 | 0.00 | 0.00 | 0.00 | 42 | 1017.9 |
| 20260503224555 | 10 | 254 | 1.6 | 4.8 | 0.00 | 0.00 | 0.00 | 42 | 1018.2 |
| 20260503224053 | 10 | 280 | 1.6 | 6.4 | 0.00 | 0.00 | 0.00 | 40 | 1018.0 |
| 20260503223550 | 10 | 265 | 6.4 | 11.3 | 0.00 | 0.00 | 0.00 | 39 | 1018.2 |
| 20260503223045 | 10 | 309 | 1.6 | 6.4 | 0.00 | 0.00 | 0.00 | 40 | 1018.2 |
| 20260503222544 | 10 | 294 | 3.2 | 4.8 | 0.00 | 0.00 | 0.00 | 41 | 1018.2 |
| 20260503222041 | 10 | 299 | 0.0 | 4.8 | 0.00 | 0.00 | 0.00 | 41 | 1018.0 |
| 20260503221539 | 10 | 303 | 3.2 | 6.4 | 0.00 | 0.00 | 0.00 | 40 | 1018.0 |
| 20260503221037 | 10 | 52 | 1.6 | 9.7 | 0.00 | 0.00 | 0.00 | 39 | 1018.1 |
| 20260503220532 | 10 | 302 | 1.6 | 12.9 | 0.00 | 0.00 | 0.00 | 39 | 1018.2 |
| 20260503220030 | 10 | 260 | 6.4 | 12.9 | 0.00 | 0.00 | 0.00 | 38 | 1018.1 |
| 20260503215527 | 10 | 274 | 6.4 | 11.3 | 0.00 | 0.00 | 0.00 | 38 | 1018.3 |
| 20260503215024 | 10 | 290 | 3.2 | 12.9 | 0.00 | 0.00 | 0.00 | 39 | 1018.2 |
| 20260503214522 | 10 | 288 | 0.0 | 9.7 | 0.00 | 0.00 | 0.00 | 40 | 1018.3 |
| 20260503214018 | 10 | 240 | 11.3 | 16.1 | 0.00 | 0.00 | 0.00 | 37 | 1018.2 |
| 20260503213517 | 10 | 258 | 8.0 | 11.3 | 0.00 | 0.00 | 0.00 | 37 | 1018.2 |
| 20260503213013 | 10 | 242 | 9.7 | 17.7 | 0.00 | 0.00 | 0.00 | 39 | 1018.4 |
| 20260503212510 | 10 | 307 | 6.4 | 12.9 | 0.00 | 0.00 | 0.00 | 40 | 1018.3 |
| 20260503212008 | 11 | 273 | 11.3 | 14.5 | 0.00 | 0.00 | 0.00 | 38 | 1018.2 |
| 20260503211505 | 10 | 279 | 0.0 | 11.3 | 0.00 | 0.00 | 0.00 | 37 | 1018.3 |
| 20260503211000 | 11 | 245 | 4.8 | 6.4 | 0.00 | 0.00 | 0.00 | 39 | 1018.4 |
| 20260503210457 | 11 | 270 | 8.0 | 9.7 | 0.00 | 0.00 | 0.00 | 38 | 1018.3 |
| 20260503205952 | 11 | 311 | 1.6 | 3.2 | 0.00 | 0.00 | 0.00 | 39 | 1018.2 |
| 20260503205449 | 11 | 68 | 1.6 | 12.9 | 0.00 | 0.00 | 0.00 | 41 | 1018.3 |
| 20260503204945 | 10 | 256 | 6.4 | 11.3 | 0.00 | 0.00 | 0.00 | 40 | 1018.4 |
| 20260503204442 | 11 | 306 | 6.4 | 9.7 | 0.00 | 0.00 | 0.00 | 39 | 1018.5 |
| 20260503203938 | 11 | 288 | 6.4 | 11.3 | 0.00 | 0.00 | 0.00 | 37 | 1018.2 |
| 20260503203436 | 11 | 290 | 6.4 | 9.7 | 0.00 | 0.00 | 0.00 | 38 | 1018.4 |
| 20260503202933 | 11 | 279 | 3.2 | 9.7 | 0.00 | 0.00 | 0.00 | 42 | 1018.5 |
| 20260503202431 | 11 | 276 | 11.3 | 14.5 | 0.00 | 0.00 | 0.00 | 38 | 1018.6 |
| 20260503201930 | 11 | 42 | 1.6 | 12.9 | 0.00 | 0.00 | 0.00 | 43 | 1018.7 |
| 20260503201427 | 11 | 265 | 4.8 | 12.9 | 0.00 | 0.00 | 0.00 | 37 | 1018.7 |
| 20260503200924 | 10 | 284 | 3.2 | 6.4 | 0.00 | 0.00 | 0.00 | 42 | 1018.6 |
| 20260503200420 | 11 | 296 | 3.2 | 6.4 | 0.00 | 0.00 | 0.00 | 40 | 1018.7 |
| 20260503195917 | 12 | 239 | 3.2 | 9.7 | 0.00 | 0.00 | 0.00 | 40 | 1018.7 |
| 20260503195415 | 10 | 287 | 3.2 | 6.4 | 0.00 | 0.00 | 0.00 | 41 | 1018.6 |
| 20260503194911 | 11 | 271 | 4.8 | 9.7 | 0.00 | 0.00 | 0.00 | 40 | 1019.0 |
| 20260503194408 | 11 | 298 | 9.7 | 12.9 | 0.00 | 0.00 | 0.00 | 39 | 1019.0 |
| 20260503193903 | 11 | 300 | 9.7 | 11.3 | 0.00 | 0.00 | 0.00 | 41 | 1018.9 |
| 20260503193359 | 11 | 236 | 6.4 | 11.3 | 0.00 | 0.00 | 0.00 | 40 | 1018.7 |
| 20260503192855 | 11 | 242 | 1.6 | 4.8 | 0.00 | 0.00 | 0.00 | 42 | 1019.1 |
| 20260503192351 | 11 | 282 | 9.7 | 12.9 | 0.00 | 0.00 | 0.00 | 41 | 1019.0 |
| 20260503191847 | 10 | 79 | 3.2 | 9.7 | 0.00 | 0.00 | 0.00 | 47 | 1019.0 |
| 20260503191345 | 10 | 272 | 3.2 | 12.9 | 0.00 | 0.00 | 0.00 | 40 | 1019.0 |
| 20260503190841 | 10 | 268 | 3.2 | 4.8 | 0.00 | 0.00 | 0.00 | 41 | 1019.3 |
| 20260503190338 | 11 | 286 | 11.3 | 14.5 | 0.00 | 0.00 | 0.00 | 40 | 1019.3 |
| 20260503185835 | 10 | 264 | 11.3 | 14.5 | 0.00 | 0.00 | 0.00 | 40 | 1019.3 |
| 20260503185331 | 10 | 314 | 0.0 | 4.8 | 0.00 | 0.00 | 0.00 | 42 | 1019.3 |
| 20260503184831 | 11 | 292 | 11.3 | 16.1 | 0.00 | 0.00 | 0.00 | 42 | 1019.4 |
| 20260503184327 | 11 | 20 | 6.4 | 14.5 | 0.00 | 0.00 | 0.00 | 45 | 1019.6 |
| 20260503183823 | 11 | 290 | 6.4 | 12.9 | 0.00 | 0.00 | 0.00 | 41 | 1019.5 |
| 20260503183321 | 11 | 307 | 1.6 | 12.9 | 0.00 | 0.00 | 0.00 | 46 | 1019.4 |
| 20260503182818 | 10 | 269 | 6.4 | 9.7 | 0.00 | 0.00 | 0.00 | 42 | 1019.6 |
| 20260503182317 | 11 | 261 | 1.6 | 9.7 | 0.00 | 0.00 | 0.00 | 44 | 1019.6 |
| 20260503181814 | 10 | 272 | 9.7 | 11.3 | 0.00 | 0.00 | 0.00 | 44 | 1019.4 |
| 20260503181311 | 10 | 253 | 12.9 | 16.1 | 0.00 | 0.00 | 0.00 | 43 | 1019.6 |
| 20260503180807 | 10 | 261 | 1.6 | 6.4 | 0.00 | 0.00 | 0.00 | 47 | 1019.6 |
| 20260503180306 | 10 | 246 | 3.2 | 14.5 | 0.00 | 0.00 | 0.00 | 44 | 1019.7 |
| 20260503175801 | 11 | 250 | 6.4 | 6.4 | 0.00 | 0.00 | 0.00 | 42 | 1019.7 |
| 20260503175300 | 10 | 91 | 3.2 | 9.7 | 0.00 | 0.00 | 0.00 | 41 | 1019.7 |
| 20260503174755 | 11 | 308 | 3.2 | 4.8 | 0.00 | 0.00 | 0.00 | 47 | 1019.6 |
| 20260503174253 | 9 | 321 | 8.0 | 14.5 | 0.00 | 0.00 | 0.00 | 45 | 1019.5 |
| 20260503173748 | 9 | 295 | 6.4 | 6.4 | 0.00 | 0.00 | 0.00 | 43 | 1019.6 |
| 20260503173244 | 9 | 303 | 12.9 | 16.1 | 0.00 | 0.00 | 0.00 | 46 | 1019.7 |
| 20260503172741 | 10 | 298 | 3.2 | 9.7 | 0.00 | 0.00 | 0.00 | 43 | 1019.8 |
| 20260503172238 | 10 | 295 | 6.4 | 11.3 | 0.00 | 0.00 | 0.00 | 44 | 1019.9 |
| 20260503171735 | 9 | 238 | 6.4 | 11.3 | 0.00 | 0.00 | 0.00 | 45 | 1019.8 |
| 20260503171232 | 10 | 267 | 8.0 | 9.7 | 0.00 | 0.00 | 0.00 | 44 | 1020.0 |
| 20260503170729 | 8 | 274 | 1.6 | 9.7 | 0.00 | 0.00 | 0.00 | 50 | 1020.0 |
| 20260503170226 | 8 | 268 | 9.7 | 17.7 | 0.00 | 0.00 | 0.00 | 45 | 1019.9 |
| 20260503160147 | 7 | 257 | 17.7 | 25.7 | 0.00 | 0.00 | 0.00 | 48 | 1020.2 |
| 20260503150618 | 8 | 299 | 4.8 | 12.9 | 0.00 | 0.00 | 0.00 | 51 | 1020.5 |
| 20260503150114 | 7 | 28 | 3.2 | 11.3 | 0.00 | 0.00 | 0.00 | 51 | 1020.4 |
| 20260503131008 | 2 | 293 | 4.8 | 11.3 | 0.00 | 0.00 | 0.00 | 76 | 1020.0 |
| 20260503130505 | 1 | 294 | 3.2 | 11.3 | 0.00 | 0.00 | 0.00 | 77 | 1019.9 |
| 20260503110355 | -1 | 296 | 4.8 | 6.4 | 0.00 | 0.00 | 0.00 | 89 | 1018.5 |
| 20260503090246 | -1 | 292 | 1.6 | 1.6 | 0.00 | 0.00 | 0.00 | 87 | 1017.9 |
| 20260503081214 | 0 | 294 | 1.6 | 3.2 | 0.00 | 0.00 | 0.00 | 87 | 1017.5 |
| 20260503080715 | 0 | 287 | 0.0 | 1.6 | 0.00 | 0.00 | 0.00 | 86 | 1017.5 |